Regional Weather Roundup
Issued by NWS

Home | Current Version | Previous Version | Graphics & Text | Print | Product List | Glossary On
Versions: 1 2 3 4 5 6 7 8 9 10 11 12 13 14 15 16 17 18 19 20 21 22 23 24 25 26 27 28 29 30 31 32 33 34 35 36 37 38 39 40 41 42 43 44 45 46 47 48 49 50
459
ASUS44 KMEG 010910
RWRTN
TENNESSEE HOURLY STATE WEATHER ROUNDUP
NATIONAL WEATHER SERVICE MEMPHIS TN
400 AM CDT SAT OCT 01 2016

TNZ002-004-019-021-049-052-054-088>092-011000-
WEST TENNESSEE

CITY           SKY/WX    TMP DP  RH WIND       PRES   REMARKS
MEMPHIS INTL   PTCLDY    59  57  93 CALM      30.05S
NWS MEMPHIS      N/A     56 N/A N/A MISG        N/A
JACKSON          N/A    N/A N/A N/A MISG      30.05S
DYERSBURG      CLEAR    N/A N/A N/A MISG        N/A
UNION CITY     CLEAR     55  55 100 SW3       30.02S
PARIS          CLOUDY    55  55 100 SW5       30.03S
HUNTINGDON     CLEAR     55  54  94 CALM      30.03R FOG
LEXINGTON      CLEAR     54  54 100 CALM      30.04S
$$

TNZ008-025-027-028-033-062-065-066-011000-
NORTH MIDDLE TENNESSEE

CITY           SKY/WX    TMP DP  RH WIND       PRES   REMARKS
NASHVILLE      CLOUDY    57  55  93 S3        30.05R
PORTLAND       CLOUDY    59  57  94 S7        30.02F
CLARKSVILLE    LGT RAIN  59  57  93 S5        30.02S FOG
SMYRNA         PTCLDY    55  53  93 S3        30.06R
COOKEVILLE     PTCLDY    48  48 100 CALM      30.04F
GALLATIN       CLOUDY    57  57 100 S3        30.06S
CROSSVILLE     CLEAR     51  48  89 CALM      30.07F
$$

TNZ061-075-076-078-094-096-097-011000-
SOUTH MIDDLE TENNESSEE

CITY           SKY/WX    TMP DP  RH WIND       PRES   REMARKS
FAYETTEVILLE   CLOUDY    54  50  87 S5        30.06R
TULLAHOMA      CLEAR     48  46  93 CALM      30.06F
WINCHESTER     CLEAR     48  48 100 CALM      30.06F
MCMINNVILLE    CLEAR     50  50 100 CALM      30.05F
COLUMBIA       PTCLDY   N/A N/A N/A CALM      30.04R
SHELBYVILLE    PTCLDY    54  54 100 NE3       30.07R
$$

TNZ017-018-042-046-047-011000-
NORTHEAST TENNESSEE

CITY           SKY/WX    TMP DP  RH WIND       PRES   REMARKS
TRI CITIES     FOG       50  49  96 CALM      30.09R VSB 1/4
ELIZABETHTON     N/A     52  50  93 CALM      30.08S
$$

TNZ012-013-036-069-073-074-011000-
CENTRAL EAST TENNESSEE

CITY           SKY/WX    TMP DP  RH WIND       PRES   REMARKS
KNOXVILLE      CLEAR     52  47  83 CALM      30.07R
OAK RIDGE      CLEAR     51  48  89 CALM      30.09S
DOWNTOWN KNOXV PTCLDY    52  52 100 CALM      30.08S
GATLINBURG     CLEAR     46  45  93 CALM      30.08S
MORRISTOWN     PTCLDY    52  48  87 CALM      30.07S
JACKSBORO      CLOUDY    52  50  93 CALM      30.10F
$$

TNZ083-085-099-011000-
SOUTHEAST TENNESSEE

CITY           SKY/WX    TMP DP  RH WIND       PRES   REMARKS
CHATTANOOGA    CLEAR     53  49  86 CALM      30.08S
$$

SKY/WX REPORTED AS FAIR MEANS FEW OR NO CLOUDS BELOW
12 THOUSAND FEET.





USA.gov is the U.S. government's official web portal to all federal, state and local government web resources and services.